ARIANE 42P DEB *, 47108

Orbit data source: Space-Track

ARIANE 42P DEB *, 47108 is space debris in LEO originally from a launch on Mon, 10 Aug 1992 UTC launched from the French Guiana (FRGUI). Debris objects in space refer to the collection of defunct objects orbiting the Earth. Examples of debris include non-operational satellites, rocket bodies, and fragments generated from explosions, collisions, or faulty payload assembly.

Loading next visibility...
Identifier
47108, 1992-052P
Orbit
LEO
Last TLE update
13 hours ago
Origin
Manufacturer
ArianeGroup
Mission
Spacecraft
Bus & Motor
Unknown
Mass
Unknown
Launch date (UTC)
1992-08-10 (33 years ago)
Launch vehicle
Unknown
Launch site
French Guiana (FRGUI)
Object type
Payload
Rocket body
Debris
Shape & HBR
Unknown
Radar Cross Section
Small (<0.1 m²)

Expand to show TLE details & history

TLE from 13 hours ago
0 ARIANE 42P DEB *
1 47108U 92052P   25183.73741017  .00001111  00000-0  63196-3 0  9999
2 47108  65.8213 358.6896 1167168  67.8953 304.1696 12.43366352 55745
Epoch: 2025-07-02T17:41Z
TLE epoch observation values (Epoch: 2025-07-02T17:41:52.238Z)
Latitude
-0.00005°
Longitude
172.2077°
Altitude
1,058.94 km
Speed
7.523 km/s
True Right ascension
23h 54m 45s
True Declination
0° 00' 00"
Sunlit
Object was in daylight at epoch
Visualization orbit readout
Latitude
-44.22313°
Longitude
16.93228°
Altitude
2,370.438 km
Speed
6.369 km/s
Apparent Right ascension
10h 32m 47s
Apparent Declination
-57° 31' 60"
Sunlit
Object is in daylight
Visualization observer readout
Local Sidereal Time
18:11:02
Azimuth
224.094° SW
Elevation
-45.442°
Doppler factor
1
Orbital elements
Apogee altitude
2,409.406 km
Perigee altitude
572.497 km
Semi-major axis
7,869.088 km
Eccentricity
0.11672
Inclination
65.8213°
RAAN
358.6896°
Arg. of periapsis
67.8953°
True anomaly
Unknown
Mean anomaly
304.1696°
Eccentric anomaly
Unknown
Mean motion
3.10926 °/min
Orbital period
115.78 mins
BSTAR
0.00063196
Loading maneuver chart data...
Loading SW <> Apogee altitude chart data...
Loading historical data...
Loading historical data...
Loading historical data...
Loading historical data...
Loading historical data...
Loading historical data...
Loading historical data...

ARIANE 42P DEB * Visibility forecast

Observer location: undefined°, undefined°

Span
Click to sort rows by Start time (UTC) header in descending order
Start Az.
Max El. time (UTC)
Max El. Az.
Max El.
End time (UTC)
End Az.
8 mins2025-07-03 13:07:21.984Z196.384° SSW2025-07-03 13:11:21.984Z142.888° SSE40.287°2025-07-03 13:15:21.984Z39.208° NE
9 mins2025-07-03 21:14:21.984Z7.996° NNE2025-07-03 21:17:21.984Z56.413° ENE27.138°2025-07-03 21:23:21.984Z112.95° SE
12 mins2025-07-03 23:12:21.984Z306.389° NW2025-07-03 23:16:21.984Z244.256° WSW35.161°2025-07-03 23:24:21.984Z175.544° S
|